This is the latest recevied weather packets stored in our database for station/object DL1BWU. If no packets are shown the sender has not sent any weather packets the latest 10 day(s).
| Time | Temp. | Humidity | Pressure | Rain* | Wind** | Luminosity | Snow |
|---|---|---|---|---|---|---|---|
| 1777834513 | 21.11° C | 45% | 1009.7 hPa | 0 mm | - | - | - |
| 1777833913 | 21.67° C | 44% | 1009.7 hPa | 0 mm | - | - | - |
| 1777833313 | 21.67° C | 43% | 1009.4 hPa | 0 mm | - | - | - |
| 1777832713 | 22.22° C | 43% | 1009.5 hPa | 0 mm | - | - | - |
| 1777832113 | 22.78° C | 42% | 1009.4 hPa | 0 mm | - | - | - |
| 1777831513 | 23.33° C | 41% | 1009.5 hPa | 0 mm | - | - | - |
| 1777830913 | 23.33° C | 40% | 1009.4 hPa | 0 mm | - | - | - |
| 1777830313 | 23.89° C | 40% | 1009.5 hPa | 0 mm | - | - | - |
| 1777829713 | 25° C | 38% | 1009.4 hPa | 0 mm | - | - | - |
| 1777829113 | 25° C | 38% | 1009.4 hPa | 0 mm | - | - | - |
| 1777828513 | 25.56° C | 35% | 1009.4 hPa | 0 mm | - | - | - |
| 1777827913 | 25.56° C | 33% | 1009.5 hPa | 0 mm | - | - | - |
| 1777827313 | 26.11° C | 32% | 1009.4 hPa | 0 mm | - | - | - |
| 1777826714 | 26.11° C | 32% | 1009.4 hPa | 0 mm | - | - | - |
| 1777826113 | 26.67° C | 32% | 1009.5 hPa | 0 mm | - | - | - |
| 1777825513 | 26.11° C | 34% | 1009.3 hPa | 0 mm | - | - | - |
| 1777824914 | 26.67° C | 32% | 1009.7 hPa | 0 mm | - | - | - |
| 1777824314 | 26.67° C | 31% | 1009.6 hPa | 0 mm | - | - | - |
| 1777823714 | 27.22° C | 31% | 1009.6 hPa | 0 mm | - | - | - |
| 1777823114 | 27.22° C | 31% | 1009.7 hPa | 0 mm | - | - | - |
| 1777822514 | 27.22° C | 30% | 1009.7 hPa | 0 mm | - | - | - |
| 1777821914 | 27.78° C | 30% | 1009.7 hPa | 0 mm | - | - | - |
| 1777821314 | 27.78° C | 30% | 1010 hPa | 0 mm | - | - | - |
| 1777820714 | 27.78° C | 30% | 1010.1 hPa | 0 mm | - | - | - |
| 1777820114 | 27.78° C | 29% | 1010.3 hPa | 0 mm | - | - | - |
* Rain latest hour (hover to see other rain measurements)
** Current wind speed in m/s (hover to see current wind gust speed)